Location: 10033 Water Well
(34.0865°N, 106.8959°W)
Time: 16:49:35
(UTC+00:00)

OAO 2 Rocket - Pass Details

Date: 13 January 2026
Orbit: 668 x 734 km, 35.0° (Epoch: 11 February)

Event Time Altitude Azimuth Distance (km) Brightness Sun altitude
Rises 01:10:03 0° 281° (W) 3,001 7.7 -10.7°
Reaches altitude 10° 01:12:26 10° 279° (W) 2,085 6.8 -11.1°
Maximum altitude 01:17:18 75° 194° (SSW) 689 3.3 -12.1°
Enters shadow 01:21:47 12° 110° (ESE) 1,953 5.1 -13.0°
